GFSSE_sfc_temp_021.txt.gz
Temp
80 83 81 82 82 83 83 83 83 83 83 83 83 83 83 83 83 83 83 83 84 84 84 84 84 84 84 84 83 83 83 83 83 83 83 83 83 83 83 83 83 90 82
87 86 82 83 83 83 83 83 83 83 83 83 83 83 84 84 84 84 84 84 84 84 84 84 84 84 84 84 84 84 83 83 83 84 84 84 83 83 83 83 84 86 82
91 90 89 82 82 82 83 83 83 83 83 83 84 84 84 84 84 84 84 84 84 84 84 84 84 84 84 84 84 84 84 83 83 84 85 87 89 83 83 83 82 82 82
92 92 92 81 82 82 83 83 83 84 84 84 84 84 84 84 84 84 84 84 84 84 84 84 84 84 84 84 84 83 83 83 83 84 87 96 93 83 83 82 82 82 82
88 89 88 82 83 83 83 83 84 84 84 84 84 84 84 84 84 84 84 84 84 84 84 84 84 84 84 84 83 83 83 83 84 85 93 92 91 85 83 82 82 82 82
93 92 85 83 83 83 84 84 84 84 84 84 84 84 84 85 85 85 84 85 85 84 85 85 84 84 84 84 83 83 83 84 83 85 87 91 89 83 83 83 83 82 82
92 92 90 83 83 83 83 84 84 84 84 84 84 84 85 85 85 85 85 85 85 85 85 85 85 84 84 84 84 83 84 84 85 90 90 93 87 83 83 83 82 82 82
94 96 90 84 83 84 84 84 84 84 84 84 84 84 84 85 85 85 85 85 85 85 85 85 85 84 84 84 84 84 84 84 88 86 89 88 82 83 83 83 83 82 82
97 96 92 91 87 84 84 84 84 84 84 84 84 84 84 84 84 85 85 85 85 85 85 85 85 84 84 84 84 84 84 85 91 86 90 84 81 83 83 83 83 82 82
96 94 91 91 91 90 89 85 85 84 84 84 84 84 84 85 85 85 85 84 84 85 85 85 85 84 84 84 84 84 84 85 93 94 88 86 81 83 83 83 82 82 82
94 93 94 91 90 92 92 89 85 85 85 84 85 85 86 91 89 91 86 85 84 84 85 85 85 85 85 84 85 85 85 82 94 87 92 80 81 83 83 83 82 82 82
90 92 93 93 95 94 97 89 90 92 92 92 92 89 92 95 94 92 90 86 85 85 86 85 85 86 85 88 90 86 90 95 95 92 87 80 81 83 84 83 82 82 82
92 94 100 96 95 96 91 94 95 96 96 95 93 92 94 95 94 96 93 87 85 83 87 89 89 94 87 92 87 94 96 97 99 80 87 81 82 82 83 83 82 82 82
93 96 98 96 93 94 96 96 98 98 97 97 95 91 91 92 93 92 95 84 90 94 91 89 88 92 92 89 88 90 95 96 96 97 86 82 83 83 83 83 82 83 82
94 96 96 95 92 92 92 96 97 97 97 98 97 94 94 94 93 93 93 92 89 87 85 90 86 88 90 90 87 89 93 92 95 96 91 82 82 82 83 83 83 83 82
94 95 96 95 92 92 91 91 93 95 96 97 97 96 91 92 92 94 84 85 84 92 87 91 83 84 86 87 85 85 89 93 92 92 96 90 82 83 82 83 83 83 83
95 96 95 94 94 91 90 91 92 95 96 94 90 95 93 90 89 88 89 91 89 87 90 88 87 89 90 91 92 94 94 93 94 92 93 94 90 82 83 83 83 82 83
96 94 95 98 96 92 91 92 94 95 86 91 96 86 92 90 88 87 90 84 85 89 86 89 87 83 92 92 91 92 92 92 93 92 92 94 95 96 84 82 83 82 83
96 94 94 95 96 93 91 92 93 94 92 96 88 92 93 92 91 89 91 89 90 89 86 89 80 90 89 90 92 93 93 92 93 97 92 92 94 94 95 82 82 83 83
97 95 93 94 93 92 92 89 92 88 92 96 94 91 88 91 90 90 92 90 89 88 89 82 85 89 87 88 91 91 91 92 93 94 93 97 93 95 93 91 87 86 83
97 94 92 90 90 91 90 89 88 90 91 93 94 92 90 90 88 87 87 87 88 88 87 87 87 86 87 89 85 89 90 89 90 87 92 93 91 94 92 92 86 85 80
95 93 91 90 90 89 90 89 94 94 96 96 93 90 91 90 90 90 89 87 87 91 87 86 84 84 88 88 83 85 83 85 86 92 90 91 89 93 92 89 87 85 84
94 93 91 90 90 90 90 91 91 92 93 93 94 93 91 91 92 89 88 89 88 87 90 85 85 83 84 87 84 82 81 77 82 87 86 88 86 90 90 87 86 85 85
96 95 93 91 89 90 89 90 88 90 89 93 94 96 95 92 92 91 90 89 87 89 86 86 87 83 82 84 87 86 84 81 80 79 83 86 87 87 85 89 87 85 86
98 97 95 91 89 90 89 88 91 88 93 95 95 90 89 89 91 91 90 88 86 88 86 85 84 82 85 84 86 86 83 85 83 81 80 81 87 88 88 87 88 89 86
100 98 96 91 88 89 89 88 87 89 88 92 91 90 90 92 90 89 90 87 86 87 86 86 84 83 82 82 84 83 84 83 83 82 81 82 82 85 88 89 87 88 88

GFSSE_sfc_temp_024.txt.gz
Temp
76 79 81 82 82 82 83 82 83 83 83 83 83 83 83 83 83 83 83 83 84 84 84 84 84 84 84 84 84 83 83 83 83 83 83 83 83 83 83 83 84 84 82
82 81 81 82 82 83 82 82 83 83 83 83 83 83 83 83 83 83 83 84 84 84 84 84 84 84 84 84 84 84 83 83 83 84 84 84 84 83 83 83 84 82 82
86 85 85 82 82 82 83 83 83 83 83 83 83 84 84 84 84 84 84 84 84 84 84 84 84 84 84 84 84 84 84 83 83 84 83 83 83 84 83 83 83 82 82
90 89 87 81 82 82 83 83 83 84 84 84 84 84 84 84 84 84 84 84 84 84 84 84 84 84 84 84 84 84 84 83 84 84 82 85 87 83 83 82 82 82 82
89 88 84 82 82 83 83 83 84 84 84 84 84 84 84 84 84 84 84 84 84 84 84 84 84 84 84 84 84 84 84 84 84 85 85 82 81 84 82 82 83 82 84
90 88 83 83 84 84 84 84 84 84 84 84 84 84 84 85 85 85 85 85 85 85 85 85 84 84 84 84 84 84 84 84 85 84 83 83 80 83 83 84 83 83 82
89 87 85 83 83 84 84 84 84 84 84 84 84 84 85 85 85 85 85 85 85 85 85 85 85 84 84 84 84 84 84 84 84 82 85 82 80 82 83 83 82 83 82
90 89 86 84 84 84 84 84 84 84 84 84 84 84 85 85 85 85 85 85 85 86 85 85 85 84 84 84 84 84 84 84 87 80 83 81 80 82 83 83 82 82 82
91 89 86 86 85 84 84 84 84 84 84 84 84 84 84 85 85 85 85 85 85 85 85 85 85 85 84 84 84 84 84 84 82 80 82 79 81 83 83 83 82 82 82
90 90 86 85 86 84 84 84 84 84 84 84 84 84 85 85 85 86 85 85 85 85 85 85 85 85 85 85 85 85 85 83 83 76 82 79 81 83 83 82 82 82 82
92 91 90 89 87 86 86 86 84 84 84 84 85 84 84 80 81 88 86 85 85 85 85 85 85 85 85 85 84 84 83 74 79 75 81 79 81 83 83 83 82 82 82
89 90 91 91 90 89 92 83 85 86 86 85 86 85 85 81 79 89 89 87 86 85 85 84 85 83 85 87 86 85 75 82 76 77 79 80 81 84 83 82 82 82 82
89 89 92 89 89 90 85 85 87 88 88 87 86 81 86 86 87 86 83 86 79 86 84 82 77 78 79 87 84 87 87 87 75 75 81 80 81 83 84 82 82 82 82
89 91 90 88 88 85 85 88 90 90 89 87 89 88 86 87 86 86 82 85 82 82 83 83 75 76 86 87 87 85 87 84 84 84 81 80 81 83 83 83 82 82 82
89 92 90 90 87 89 88 89 87 87 87 92 87 87 87 86 83 86 84 85 85 85 84 83 83 81 78 84 86 86 85 85 87 86 80 81 81 82 83 83 83 82 82
92 93 93 91 88 89 88 89 87 89 90 87 87 85 87 88 84 83 83 83 85 82 84 84 83 83 83 85 84 85 84 85 86 86 85 81 81 81 82 83 83 83 83
93 94 92 91 90 87 87 88 88 89 93 88 86 85 87 86 87 86 83 84 84 83 83 84 84 83 82 85 84 85 85 85 86 85 85 83 82 81 81 82 82 81 82
93 91 92 95 91 87 86 87 88 89 84 85 84 86 86 84 86 85 84 84 81 80 81 78 81 79 79 82 80 82 83 85 86 85 85 85 84 86 82 82 82 82 82
93 91 90 91 91 87 86 87 87 86 84 86 84 84 84 86 84 83 84 80 83 81 83 80 80 78 79 80 82 82 82 83 85 89 86 86 86 85 83 81 80 81 83
94 91 89 91 89 86 86 85 86 85 88 85 86 86 84 86 88 80 84 83 84 84 82 81 80 81 79 78 86 82 82 83 83 82 84 88 86 85 84 81 78 81 80
94 90 88 87 86 87 87 85 84 84 85 86 87 82 83 86 87 86 82 84 84 81 80 81 81 78 78 79 77 76 78 82 82 81 83 82 83 85 83 80 78 76 77
92 89 87 86 86 86 87 85 85 84 87 86 88 87 86 84 84 84 81 82 81 80 81 80 79 76 77 79 75 73 71 74 79 82 80 82 81 82 83 82 80 79 77
91 89 87 85 86 85 87 85 84 85 87 85 84 83 86 87 87 84 85 84 82 82 80 79 79 79 75 78 79 74 69 68 73 78 78 77 79 77 79 79 79 79 78
92 92 87 86 85 86 85 84 83 83 83 85 86 85 86 86 86 85 85 84 81 80 78 79 81 78 77 74 77 80 78 76 69 68 74 76 77 78 77 77 77 78 78
95 93 90 86 85 85 85 84 84 84 86 87 86 84 83 84 87 87 85 83 81 80 80 80 78 77 77 76 75 76 76 75 75 71 69 71 75 75 76 76 77 76 78
97 94 91 86 84 85 85 84 83 83 83 85 86 83 83 83 84 85 85 81 81 80 79 80 79 80 78 77 76 76 74 74 72 72 70 71 72 74 77 77 75 75 76

GFSSE_sfc_temp_030.txt.gz
Temp
73 76 81 82 83 82 83 83 83 83 83 83 83 83 83 83 83 83 83 83 83 83 83 83 83 83 82 82 82 83 83 83 83 83 83 83 82 82 83 83 82 81 82
75 77 81 82 83 83 83 83 82 82 83 83 83 83 83 83 83 83 83 83 83 83 83 83 83 83 83 83 83 83 81 82 83 83 84 84 83 83 83 82 82 81 82
76 77 80 81 83 83 82 83 83 83 83 83 83 83 83 83 83 83 83 83 84 84 84 84 83 83 83 83 83 83 83 82 82 83 83 77 79 83 83 83 82 82 82
77 77 78 81 82 83 83 83 83 83 83 83 83 83 83 83 83 84 84 84 83 83 84 84 83 83 83 82 83 83 83 83 83 83 78 80 82 83 83 83 82 82 82
77 77 79 82 82 83 83 83 83 83 83 83 83 83 83 84 84 84 84 83 83 83 83 83 83 83 83 83 83 83 83 83 84 83 79 76 76 82 82 83 82 82 81
77 79 82 83 83 83 83 83 83 83 83 83 83 83 84 84 84 84 84 84 84 84 84 84 83 83 83 83 83 83 84 85 82 77 77 78 76 83 83 83 83 82 82
77 78 81 83 83 83 83 83 83 83 83 83 83 84 84 84 84 84 84 84 84 84 84 84 83 83 83 83 83 83 84 81 77 76 76 76 76 82 83 83 82 82 82
77 79 81 83 83 83 84 83 83 84 83 83 83 84 84 84 84 84 84 84 85 85 84 84 84 83 83 83 83 83 83 81 78 76 77 75 79 82 83 82 83 82 82
79 78 79 80 82 84 83 84 83 83 83 83 83 83 83 84 84 84 84 84 84 85 85 84 84 83 83 83 83 81 81 79 73 75 77 74 80 82 83 83 82 82 82
78 77 76 76 77 77 80 84 84 83 83 83 83 83 83 84 84 84 84 83 84 85 85 84 84 84 83 84 82 81 81 81 72 73 74 75 79 83 83 82 82 81 81
77 76 76 75 75 75 77 81 83 84 83 84 83 84 82 77 77 80 82 84 85 85 85 85 84 83 84 83 81 81 81 71 73 72 73 78 79 83 83 82 82 81 81
74 75 77 76 76 75 82 77 76 78 77 76 76 76 76 76 74 79 81 85 85 85 85 84 84 83 80 75 76 80 71 72 72 73 73 77 80 83 83 82 82 81 81
76 77 77 77 77 76 78 74 74 74 73 74 75 75 75 76 74 75 76 77 74 79 75 80 79 76 76 75 74 72 74 72 69 70 76 79 81 82 83 82 82 81 81
77 78 78 78 78 77 77 76 74 74 74 74 75 75 74 74 75 74 76 74 74 73 75 75 74 75 76 76 77 79 74 72 72 72 74 80 81 82 83 83 82 81 82
77 79 78 79 78 79 76 76 74 76 76 77 76 76 76 75 75 76 77 75 75 77 77 74 73 74 74 76 78 78 77 77 74 75 72 81 80 81 83 82 82 82 82
80 80 81 79 79 79 78 74 76 79 79 79 81 77 80 76 76 75 76 76 76 74 76 74 73 74 74 79 77 78 78 77 76 75 75 76 81 81 81 83 82 82 82
81 82 81 81 80 79 79 78 80 83 84 81 79 78 79 77 76 75 74 75 75 75 76 74 75 74 77 76 74 75 76 77 76 77 76 74 77 82 82 82 81 81 81
82 81 82 86 81 79 78 79 78 79 77 77 78 78 79 78 76 75 74 74 75 78 77 74 73 72 72 71 70 72 73 74 79 79 75 75 75 79 81 82 81 81 82
83 82 81 84 81 79 77 77 78 78 77 76 76 77 78 78 77 75 74 74 75 74 73 73 71 72 70 70 72 72 71 73 75 81 77 78 74 76 76 80 81 81 83
82 83 82 83 81 80 77 75 75 75 76 76 76 76 77 76 77 75 75 74 74 73 72 72 72 71 69 69 75 74 70 72 77 77 76 82 77 76 78 78 74 76 81
81 81 81 81 80 79 74 73 72 72 74 75 76 78 79 77 77 75 73 74 74 72 72 73 70 69 68 68 67 68 68 71 72 71 72 74 75 75 74 74 72 73 76
81 81 81 79 80 79 79 79 75 74 74 75 75 76 77 78 77 76 74 73 74 73 72 71 69 65 66 67 65 62 63 69 71 72 70 72 72 74 74 74 72 72 71
83 80 81 79 79 80 79 77 73 73 73 73 74 75 76 80 77 76 74 73 73 71 70 70 68 67 66 67 67 66 60 61 68 71 72 70 70 69 70 71 71 71 70
83 83 82 79 78 79 79 79 78 74 72 73 75 79 76 77 77 76 75 74 72 71 70 70 70 67 66 65 66 69 65 66 62 61 69 67 68 69 68 67 69 70 69
86 83 82 80 78 79 79 80 79 75 76 74 73 75 73 75 76 77 74 73 72 71 70 70 68 67 67 65 65 65 64 64 63 61 60 64 66 67 67 68 68 67 68
86 84 82 80 79 79 79 79 78 77 74 72 71 71 72 76 75 74 75 73 71 70 69 69 68 67 67 66 65 64 64 64 62 61 59 60 62 66 66 67 67 67 67

GFSSE_sfc_temp_033.txt.gz
Temp
73 76 81 82 83 83 83 83 83 82 82 82 82 83 83 83 83 83 83 83 83 83 83 83 83 83 83 83 83 83 83 83 83 83 83 83 82 82 82 82 81 80 81
75 77 81 82 83 83 83 83 82 82 83 83 83 83 83 83 83 83 83 83 83 83 83 83 83 83 83 83 82 82 82 83 83 84 83 83 82 82 82 82 81 81 82
75 76 80 81 83 83 82 83 83 83 83 83 83 83 83 83 83 83 83 83 83 83 83 83 83 83 82 82 83 82 83 82 82 83 82 76 78 82 83 82 82 82 81
76 74 77 81 82 83 83 83 83 83 83 83 83 83 83 83 83 83 83 83 83 83 83 83 83 83 83 82 82 82 83 82 83 83 76 78 81 83 83 83 82 82 81
75 75 78 82 82 83 83 83 83 83 83 83 83 83 83 83 83 83 83 83 83 83 83 83 83 83 83 83 83 83 83 83 83 81 77 74 76 82 83 82 82 82 81
76 78 81 82 83 83 83 83 83 83 83 83 83 83 83 83 83 83 83 83 83 83 83 83 83 83 83 83 83 83 84 83 82 77 74 78 76 82 83 82 82 81 81
74 76 80 83 83 83 83 83 83 83 83 83 83 83 83 84 84 84 83 84 84 84 83 83 83 83 83 83 83 83 82 83 75 75 75 75 76 82 83 83 82 82 81
76 76 79 82 83 83 83 83 83 83 83 83 83 83 83 83 84 84 84 84 84 84 84 83 83 83 83 83 83 83 83 83 78 75 75 74 78 82 83 82 82 82 81
78 76 77 79 82 83 83 83 83 83 83 83 83 83 83 83 83 83 84 84 84 84 84 84 83 83 83 83 83 82 82 80 74 73 76 74 80 82 83 82 82 82 81
76 76 75 76 77 77 79 83 83 83 83 83 83 83 83 83 84 84 83 83 84 84 84 84 84 82 83 83 82 82 81 79 72 73 73 74 79 82 83 82 82 82 81
75 74 74 74 74 75 76 80 83 83 83 83 83 83 82 76 77 79 81 83 84 85 84 84 84 83 83 83 82 82 82 70 71 71 73 77 79 83 83 82 82 81 81
72 73 74 74 74 74 80 76 75 77 76 76 76 76 76 75 74 79 80 84 85 85 84 84 84 83 79 74 75 80 71 72 71 72 72 78 80 83 83 82 82 81 81
73 75 75 74 74 74 76 73 73 73 73 73 74 74 74 75 73 74 74 75 74 79 75 78 77 75 74 73 74 72 75 71 69 69 75 78 80 82 83 82 81 81 81
73 74 75 75 74 73 72 74 73 72 72 72 72 73 72 72 73 73 74 74 73 73 74 74 73 74 74 76 74 75 72 72 70 71 72 79 80 82 83 82 82 81 81
73 75 75 76 74 74 72 72 71 71 72 73 73 74 73 72 72 74 75 74 73 76 73 73 73 73 73 74 75 76 75 74 73 73 71 80 80 80 82 83 82 82 82
75 75 76 76 76 75 74 71 72 73 74 74 74 74 76 74 73 73 72 74 73 73 75 73 73 73 72 77 76 76 75 74 74 73 72 74 80 81 81 82 82 82 82
77 77 76 76 77 75 74 73 74 75 78 79 78 76 76 75 74 73 72 73 74 73 74 73 73 73 72 74 73 74 74 74 74 74 74 73 76 81 81 82 82 81 81
79 77 78 81 78 76 76 75 76 78 81 81 76 75 76 75 74 74 73 73 74 74 75 74 72 71 71 71 69 71 69 73 75 75 74 74 74 76 79 81 81 81 82
79 78 78 79 78 76 76 76 75 76 74 75 74 74 76 76 76 74 73 72 73 73 74 72 70 70 69 69 70 70 69 71 72 78 75 74 73 74 74 79 81 81 82
81 80 79 80 79 77 77 77 73 73 74 75 75 74 75 75 76 74 74 73 73 72 71 70 70 69 67 67 73 71 69 70 74 74 73 80 73 74 76 77 74 75 80
81 79 79 79 79 78 75 73 70 71 72 72 74 76 75 77 76 75 72 73 72 71 71 71 69 68 66 66 65 66 67 68 69 69 70 71 72 73 73 73 72 72 75
79 79 79 79 78 78 78 79 74 72 72 74 74 75 76 77 77 75 73 72 72 71 70 69 68 64 65 65 63 61 62 67 68 69 68 71 70 72 73 73 71 71 70
79 79 79 79 79 79 79 76 71 71 72 71 72 73 75 76 77 75 74 72 71 71 69 68 68 65 65 65 65 64 60 60 62 66 68 71 68 68 69 69 70 70 69
80 80 80 79 79 79 78 78 78 74 72 70 72 73 73 76 76 75 74 72 72 70 69 68 68 65 65 65 65 67 64 64 61 60 65 69 66 68 65 66 68 69 68
83 80 80 78 79 79 78 80 78 76 77 71 71 73 72 73 75 76 74 72 70 70 70 69 67 66 65 64 64 63 62 62 61 61 59 62 64 65 65 65 66 67 68
84 82 80 77 77 78 78 78 77 77 74 71 69 70 70 71 73 74 74 72 71 69 69 68 67 66 66 65 63 63 63 63 62 60 58 60 62 65 64 65 65 65 66